This demonstration page uses our WeatherBlox Daily Observations layout. Learn more.

Left ArrowRight Arrow

44.8408, -93.29828

Hourly Observations for September 21, 2021

Temp ( °F °C ) Dew Point ( °F °C ) Humidity (%) Winds ( mph kmh ) Pressure ( in mb ) Visibility ( mi km ) Precip ( " mm )
12:53 am 00:53 Cloudy 57 13.9 52 11.1 83 83 NNW 12 19 29.94 1014 10 16 0.00 0.00
1:53 am 01:53 Cloudy 57 13.9 52 11.1 83 83 NW 10 17 29.97 1015 10 16 0.00 0.00
2:53 am 02:53 Partly Cloudy 56 13.3 51 10.6 84 84 WNW 12 19 29.98 1015 10 16 0.00 0.00
3:53 am 03:53 Mostly Clear 54 12.2 51 10.6 90 90 WNW 8 13 30.01 1016 10 16 0.00 0.00
4:53 am 04:53 Clear 54 12.2 50 10 87 87 NW 10 17 30.04 1017 10 16 0.00 0.00
5:53 am 05:53 Clear 53 11.7 49 9.4 86 86 WNW 6 9 30.07 1018 10 16 0.00 0.00
6:53 am 06:53 Mostly Clear 54 12.2 49 9.4 83 83 W 5 7 30.11 1020 10 16 0.00 0.00
7:53 am 07:53 Mostly Cloudy 55 12.8 50 10 83 83 WNW 6 9 30.14 1021 10 16 0.00 0.00
8:53 am 08:53 Partly Cloudy 58 14.4 51 10.6 78 78 NW 7 11 30.16 1021 10 16 0.00 0.00
9:53 am 09:53 Mostly Sunny 60 15.6 51 10.6 72 72 NW 9 15 30.19 1022 10 16 0.00 0.00
10:53 am 10:53 Partly Cloudy 63 17.2 50 10 63 63 N 12 19 30.21 1023 10 16 0.00 0.00
11:53 am 11:53 Mostly Cloudy 64 17.8 50 10 60 60 NW 14 22 30.22 1023 10 16 0.00 0.00
12:53 pm 12:53 Mostly Cloudy 66 18.9 47 8.3 50 50 NW 18 30 30.22 1023 10 16 0.00 0.00
1:53 pm 13:53 Partly Cloudy 65 18.3 45 7.2 49 49 NW 20 31 30.21 1023 10 16 0.00 0.00
2:53 pm 14:53 Partly Cloudy 66 18.9 45 7.2 47 47 NNW 15 24 30.21 1023 10 16 0.00 0.00
3:53 pm 15:53 Partly Cloudy 66 18.9 45 7.2 47 47 NNW 14 22 30.22 1023 10 16 0.00 0.00
4:53 pm 16:53 Partly Cloudy 64 17.8 43 6.1 46 46 NW 13 20 30.23 1024 10 16 0.00 0.00
5:53 pm 17:53 Partly Cloudy 63 17.2 42 5.6 47 47 NNW 13 20 30.26 1025 10 16 0.00 0.00
6:53 pm 18:53 Mostly Sunny 62 16.7 42 5.6 48 48 NW 12 19 30.27 1025 10 16 0.00 0.00
7:53 pm 19:53 Clear 59 15 43 6.1 56 56 NW 8 13 30.29 1026 10 16 0.00 0.00
8:53 pm 20:53 Clear 57 13.9 43 6.1 60 60 NNW 6 9 30.30 1026 10 16 0.00 0.00
9:53 pm 21:53 Clear 54 12.2 43 6.1 67 67 NW 6 9 30.31 1027 10 16 0.00 0.00
10:53 pm 22:53 Clear 53 11.7 44 6.7 72 72 NW 6 9 30.33 1027 10 16 0.00 0.00
11:53 pm 23:53 Clear 53 11.7 43 6.1 69 69 NW 6 9 30.32 1027 10 16 0.00 0.00

Powered by AerisWeather